| time (UTC) | temp F | wind direction | speed MPH | gust MPH | rain 1hr in | rain 24hr in | rain mn in | humidity % | barometer mb |
| 20260902081514 | 69 | 188 | 10.0 | 18.0 | 0.00 | 0.00 | 0.00 | 34 | 1010.3 |
| 20260902080010 | 70 | 205 | 11.0 | 19.0 | 0.00 | 0.00 | 0.00 | 35 | 1010.4 |
| 20260902074508 | 69 | 209 | 8.0 | 17.0 | 0.00 | 0.00 | 0.00 | 38 | 1010.4 |
| 20260902073007 | 69 | 211 | 10.0 | 16.0 | 0.00 | 0.00 | 0.00 | 42 | 1010.3 |
| 20260902071505 | 69 | 211 | 8.0 | 15.0 | 0.00 | 0.00 | 0.00 | 42 | 1010.3 |
| 20260902070002 | 70 | 224 | 6.0 | 13.0 | 0.00 | 0.00 | 0.00 | 41 | 1010.3 |
| 20260902064619 | 70 | 182 | 8.0 | 15.0 | 0.00 | 0.00 | 0.00 | 40 | 1010.4 |
| 20260902063059 | 70 | 217 | 6.0 | 15.0 | 0.00 | 0.00 | 0.00 | 40 | 1010.4 |
| 20260902061554 | 69 | 217 | 4.0 | 7.0 | 0.00 | 0.00 | 0.00 | 37 | 1010.5 |
| 20260902054550 | 70 | 146 | 5.0 | 10.0 | 0.00 | 0.00 | 0.00 | 35 | 1010.7 |
| 20260902053052 | 70 | 174 | 4.0 | 8.0 | 0.00 | 0.00 | 0.00 | 37 | 1010.8 |
| 20260902051549 | 70 | 160 | 5.0 | 10.0 | 0.00 | 0.00 | 0.00 | 34 | 1010.9 |
| 20260902050104 | 71 | 184 | 4.0 | 8.0 | 0.00 | 0.00 | 0.00 | 34 | 1011.0 |
| 20260902044605 | 72 | 214 | 7.0 | 13.0 | 0.00 | 0.00 | 0.00 | 33 | 1011.0 |
| 20260902043046 | 72 | 221 | 6.0 | 13.0 | 0.00 | 0.00 | 0.00 | 33 | 1011.1 |
| 20260902041546 | 72 | 201 | 7.0 | 14.0 | 0.00 | 0.00 | 0.00 | 33 | 1011.1 |
| 20260902040051 | 73 | 210 | 7.0 | 16.0 | 0.00 | 0.00 | 0.00 | 33 | 1011.1 |
| 20260902034554 | 73 | 211 | 10.0 | 15.0 | 0.00 | 0.00 | 0.00 | 34 | 1010.9 |
| 20260902033043 | 73 | 217 | 6.0 | 13.0 | 0.00 | 0.00 | 0.00 | 34 | 1010.9 |
| 20260902031545 | 73 | 219 | 6.0 | 19.0 | 0.00 | 0.00 | 0.00 | 34 | 1010.8 |
| 20260902030043 | 73 | 200 | 6.0 | 15.0 | 0.00 | 0.01 | 0.00 | 34 | 1010.7 |
| 20260902024550 | 74 | 183 | 7.0 | 21.0 | 0.00 | 0.01 | 0.00 | 34 | 1010.6 |
| 20260902023043 | 74 | 208 | 8.0 | 16.0 | 0.00 | 0.01 | 0.00 | 34 | 1010.5 |
| 20260902021549 | 74 | 217 | 11.0 | 17.0 | 0.00 | 0.01 | 0.00 | 33 | 1010.4 |
| 20260902020039 | 75 | 215 | 6.0 | 16.0 | 0.00 | 0.08 | 0.00 | 33 | 1010.4 |
| 20260902014542 | 75 | 229 | 9.0 | 19.0 | 0.00 | 0.08 | 0.00 | 33 | 1010.5 |
| 20260902013039 | 77 | 231 | 9.0 | 26.0 | 0.00 | 0.08 | 0.00 | 31 | 1010.6 |
| 20260902011536 | 77 | 198 | 7.0 | 23.0 | 0.00 | 0.08 | 0.00 | 32 | 1010.6 |
| 20260902010042 | 77 | 205 | 15.0 | 27.0 | 0.00 | 0.08 | 0.00 | 31 | 1010.7 |
| 20260902004534 | 78 | 233 | 15.0 | 25.0 | 0.00 | 0.08 | 0.00 | 29 | 1010.8 |
| 20260902003039 | 78 | 212 | 14.0 | 26.0 | 0.00 | 0.08 | 0.00 | 31 | 1011.0 |
| 20260902001533 | 78 | 237 | 13.0 | 25.0 | 0.00 | 0.08 | 0.00 | 31 | 1010.9 |
| 20260902000033 | 79 | 222 | 16.0 | 31.0 | 0.00 | 0.08 | 0.00 | 29 | 1010.9 |
| 20260901234531 | 79 | 212 | 13.0 | 25.0 | 0.00 | 0.08 | 0.00 | 30 | 1010.9 |
| 20260901233031 | 79 | 210 | 17.0 | 36.0 | 0.00 | 0.08 | 0.00 | 28 | 1011.0 |
| 20260901231632 | 80 | 177 | 16.0 | 26.0 | 0.00 | 0.08 | 0.00 | 28 | 1011.0 |
| 20260901230030 | 79 | 181 | 18.0 | 32.0 | 0.00 | 0.08 | 0.00 | 28 | 1011.0 |
| 20260901224528 | 79 | 229 | 21.0 | 31.0 | 0.00 | 0.08 | 0.00 | 30 | 1011.1 |
| 20260901223038 | 79 | 206 | 11.0 | 25.0 | 0.00 | 0.08 | 0.00 | 31 | 1011.1 |
| 20260901221525 | 79 | 216 | 16.0 | 30.0 | 0.00 | 0.08 | 0.00 | 33 | 1011.3 |
| 20260901220032 | 79 | 235 | 16.0 | 26.0 | 0.00 | 0.08 | 0.00 | 31 | 1011.3 |
| 20260901214521 | 79 | 240 | 17.0 | 29.0 | 0.00 | 0.08 | 0.00 | 29 | 1011.5 |
| 20260901213019 | 79 | 211 | 11.0 | 25.0 | 0.00 | 0.08 | 0.00 | 35 | 1011.7 |
| 20260901211516 | 78 | 198 | 11.0 | 24.0 | 0.00 | 0.08 | 0.00 | 36 | 1012.1 |
| 20260901210014 | 78 | 203 | 12.0 | 22.0 | 0.00 | 0.08 | 0.00 | 37 | 1012.4 |
| 20260901204511 | 78 | 217 | 10.0 | 23.0 | 0.00 | 0.08 | 0.00 | 34 | 1012.6 |
| 20260901203009 | 79 | 225 | 14.0 | 24.0 | 0.00 | 0.08 | 0.00 | 34 | 1012.7 |
| 20260901201505 | 77 | 239 | 9.0 | 23.0 | 0.00 | 0.08 | 0.00 | 37 | 1012.9 |
| 20260901200002 | 77 | 154 | 12.0 | 29.0 | 0.00 | 0.09 | 0.00 | 41 | 1013.0 |
| 20260901194600 | 75 | 181 | 17.0 | 28.0 | 0.00 | 0.09 | 0.00 | 41 | 1013.2 |
| 20260901193116 | 74 | 214 | 13.0 | 21.0 | 0.00 | 0.09 | 0.00 | 45 | 1013.4 |
| 20260901191555 | 76 | 203 | 14.0 | 24.0 | 0.00 | 0.09 | 0.00 | 48 | 1013.5 |
| 20260901190105 | 74 | 202 | 13.0 | 22.0 | 0.00 | 0.14 | 0.00 | 51 | 1013.7 |
| 20260901184552 | 73 | 200 | 11.0 | 21.0 | 0.00 | 0.14 | 0.00 | 53 | 1014.1 |
| 20260901183048 | 73 | 192 | 11.0 | 18.0 | 0.00 | 0.14 | 0.00 | 54 | 1014.3 |
| 20260901181547 | 73 | 211 | 11.0 | 21.0 | 0.00 | 0.14 | 0.00 | 54 | 1014.2 |
| 20260901180043 | 72 | 213 | 10.0 | 19.0 | 0.00 | 0.14 | 0.00 | 59 | 1014.5 |
| 20260901174542 | 71 | 207 | 7.0 | 14.0 | 0.00 | 0.14 | 0.00 | 56 | 1014.4 |
| 20260901173042 | 72 | 196 | 9.0 | 17.0 | 0.00 | 0.14 | 0.00 | 57 | 1014.3 |
| 20260901171556 | 72 | 188 | 9.0 | 20.0 | 0.00 | 0.14 | 0.00 | 58 | 1014.4 |
| 20260901170040 | 71 | 186 | 10.0 | 20.0 | 0.00 | 0.14 | 0.00 | 58 | 1014.4 |
| 20260901164538 | 71 | 171 | 9.0 | 16.0 | 0.00 | 0.14 | 0.00 | 59 | 1014.3 |
| 20260901163033 | 70 | 217 | 9.0 | 16.0 | 0.00 | 0.14 | 0.00 | 61 | 1014.3 |
| 20260901161531 | 70 | 162 | 7.0 | 14.0 | 0.00 | 0.14 | 0.00 | 63 | 1014.4 |
| 20260901160027 | 64 | 330 | 0.0 | 4.0 | 0.00 | 0.14 | 0.00 | 75 | 1014.5 |
| 20260901154521 | 60 | 58 | 0.0 | 0.0 | 0.00 | 0.14 | 0.00 | 79 | 1014.7 |
| 20260901153017 | 57 | 347 | 0.0 | 3.0 | 0.00 | 0.14 | 0.00 | 83 | 1014.8 |
| 20260901151517 | 57 | 343 | 1.0 | 3.0 | 0.00 | 0.14 | 0.00 | 81 | 1014.7 |
| 20260901150014 | 56 | 83 | 0.0 | 4.0 | 0.00 | 0.14 | 0.00 | 85 | 1014.7 |
| 20260901144511 | 55 | 99 | 0.0 | 2.0 | 0.00 | 0.14 | 0.00 | 86 | 1014.7 |
| 20260901143011 | 54 | 56 | 1.0 | 3.0 | 0.00 | 0.14 | 0.00 | 86 | 1014.6 |
| 20260901141515 | 55 | 309 | 0.0 | 0.0 | 0.00 | 0.14 | 0.00 | 87 | 1014.6 |
| 20260901140008 | 53 | 266 | 0.0 | 0.0 | 0.00 | 0.14 | 0.00 | 89 | 1014.4 |
| 20260901134511 | 50 | 175 | 0.0 | 0.0 | 0.00 | 0.14 | 0.00 | 92 | 1014.3 |
| 20260901133006 | 50 | 175 | 0.0 | 0.0 | 0.00 | 0.14 | 0.00 | 92 | 1014.4 |
| 20260901131505 | 49 | 226 | 0.0 | 2.0 | 0.00 | 0.14 | 0.00 | 93 | 1014.3 |
| 20260901130005 | 49 | 176 | 0.0 | 0.0 | 0.00 | 0.14 | 0.00 | 92 | 1014.1 |
| 20260901124505 | 48 | 202 | 0.0 | 0.0 | 0.00 | 0.14 | 0.00 | 93 | 1014.0 |
| 20260901123007 | 49 | 193 | 0.0 | 1.0 | 0.00 | 0.14 | 0.00 | 92 | 1014.0 |
| 20260901121502 | 49 | 286 | 0.0 | 0.0 | 0.00 | 0.14 | 0.00 | 92 | 1013.9 |
| 20260901120003 | 49 | 150 | 0.0 | 0.0 | 0.00 | 0.14 | 0.00 | 92 | 1014.0 |
| 20260901114602 | 49 | 221 | 0.0 | 0.0 | 0.00 | 0.14 | 0.00 | 92 | 1014.0 |
| 20260901113059 | 49 | 221 | 0.0 | 0.0 | 0.00 | 0.14 | 0.00 | 92 | 1013.9 |
| 20260901111558 | 49 | 221 | 0.0 | 0.0 | 0.00 | 0.14 | 0.00 | 91 | 1013.9 |
| 20260901110057 | 49 | 221 | 0.0 | 0.0 | 0.00 | 0.14 | 0.00 | 91 | 1013.8 |
| 20260901104554 | 49 | 221 | 0.0 | 0.0 | 0.00 | 0.14 | 0.00 | 91 | 1013.6 |
| 20260901103103 | 49 | 226 | 0.0 | 0.0 | 0.00 | 0.14 | 0.00 | 91 | 1013.7 |
| 20260901101552 | 50 | 238 | 0.0 | 0.0 | 0.00 | 0.14 | 0.00 | 91 | 1013.7 |
| 20260901100050 | 50 | 222 | 0.0 | 1.0 | 0.00 | 0.14 | 0.00 | 90 | 1013.8 |
| 20260901094548 | 50 | 252 | 0.0 | 1.0 | 0.00 | 0.14 | 0.00 | 90 | 1013.7 |
| 20260901093047 | 51 | 205 | 0.0 | 2.0 | 0.00 | 0.14 | 0.00 | 89 | 1013.8 |
| 20260901091551 | 51 | 193 | 0.0 | 1.0 | 0.00 | 0.14 | 0.00 | 89 | 1013.9 |
| 20260901090044 | 51 | 207 | 0.0 | 3.0 | 0.00 | 0.14 | 0.00 | 89 | 1014.0 |
| 20260901084543 | 52 | 181 | 0.0 | 1.0 | 0.00 | 0.14 | 0.00 | 89 | 1014.1 |
| 20260901083041 | 52 | 210 | 0.0 | 2.0 | 0.00 | 0.14 | 0.00 | 89 | 1013.9 |